Regional Weather Roundup
Issued by NWS Northern Indiana

Home | Current Version | Previous Version | Graphics & Text | Print | Product List | Glossary On
Versions: 1 2 3 4 5 6 7 8 9 10 11 12 13 14 15 16 17 18 19 20 21 22 23 24 25 26 27 28 29 30 31 32 33 34 35 36 37 38 39 40 41 42 43 44 45 46 47 48 49 50
032
ASUS43 KIWX 230410
RWRIWX

KIWX WEATHER ROUNDUP
NATIONAL WEATHER SERVICE NORTHERN INDIANA
1100 PM EST WED NOV 22 2017

NOTE: "FAIR" INDICATES FEW OR NO CLOUDS BELOW 12,000 FEET WITH NO
SIGNIFICANT WEATHER AND/OR OBSTRUCTIONS TO VISIBILITY.

* THESE STATIONS ARE NOT UNDER NWS QUALITY CONTROL. THEY ALSO MAY NOT
  REPORT WEATHER SUCH AS PRECIPITATION OR FOG.

INZ001>027-230500-
NORTHERN INDIANA

CITY           SKY/WX    TMP DP  RH WIND       PRES   REMARKS
GARY*          PTCLDY    32  17  55 CALM      30.22F
VALPARAISO     MOCLDY    31  20  63 S5        30.21S WCI  26
MICHIGAN CITY* CLOUDY    30  19  64 S3        30.22S
LAPORTE*       PTCLDY    29  19  66 SW6       30.22R WCI  23
KNOX*          MOCLDY    30  23  74 CALM      30.22S
SOUTH BEND     MOCLDY    28  22  78 SW5       30.21F WCI  23
GOSHEN         PTCLDY    29  22  75 S5        30.20F WCI  24
MONTICELLO*    PTCLDY    28  23  82 SW3       30.23F
LOGANSPORT*    PTCLDY    28  27  93 S5        30.24F WCI  23
ROCHESTER*     CLOUDY    32  25  74 S5        30.22F WCI  27
WARSAW*        PTCLDY    30  23  74 CALM      30.21F
AUBURN*        CLOUDY    28  21  74 CALM      30.22F
FORT WAYNE     CLOUDY    30  25  81 S6        30.23F WCI  24
HUNTINGTON*    CLOUDY    29  25  82 CALM      30.22F
PERU/GRISSOM   PTCLDY    28  25  89 S3        30.22F
MARION*        CLOUDY    28  25  91 CALM      30.24F

$$
INZ028>050-230500-
CENTRAL INDIANA

CITY           SKY/WX    TMP DP  RH WIND       PRES   REMARKS
LAFAYETTE      PTCLDY    27  23  85 CALM      30.24F
KOKOMO*        CLOUDY    28  25  88 CALM      30.24F
MUNCIE*        CLOUDY    28  22  78 CALM      30.23F
INDIANAPOLIS   MOCLDY    30  23  75 CALM      30.24F

$$
MIZ043>046-050>051-056>058-064>065-071>073-077>080-230500-
SOUTHWEST LOWER MICHIGAN

CITY           SKY/WX    TMP DP  RH WIND       PRES   REMARKS
BATTLE CREEK   CLOUDY    30  23  75 S6        30.18F WCI  24
BENTON HARBOR  MOCLDY    31  21  66 S7        30.19S WCI  24
COLDWATER*     MOCLDY    29  22  74 S7        30.18F WCI  22
HILLSDALE*     CLOUDY    27  19  74 S5        30.18S WCI  21
HOLLAND        CLOUDY    31  24  75 S8        30.17F WCI  23
GRAND RAPIDS   CLOUDY    32  25  75 SW7       30.16F WCI  26
KALAMAZOO      CLOUDY    30  22  72 SW6       30.19F WCI  24
STURGIS*       CLOUDY    29  24  80 S6        30.18F WCI  23
THREE RIVERS*  CLOUDY    31  26  81 SW5       30.19F WCI  26

$$
OHZ001>008-015>018-024>025-230500-
NORTHWEST OHIO

CITY           SKY/WX    TMP DP  RH WIND       PRES   REMARKS
WAUSEON*       FAIR      28  27  93 S5        30.21F WCI  23
DEFIANCE       CLOUDY    27  21  78 S5        30.23F WCI  22
FINDLAY        CLOUDY    26  19  74 S6        30.23F WCI  19
TOLEDO EXPRESS PTCLDY    28  22  78 S6        30.22F WCI  22
TOLEDO METCALF PTCLDY    28  21  75 S6        30.24F WCI  22
LIMA           CLOUDY    25  21  85 S5        30.22F WCI  19

$$
AND FOR LAKE MICHIGAN COASTAL AND OPEN LAKE BUOY OBSERVATIONS

STATION/POSITION TEMP    WIND        PRES    VSBY  WAVE
                 AIR SEA DIR/SP/G                  HT/PER
                 (F)     (DEG/KT/KT) (MB)    (MI)  (FT/S)
CALUMET HARBOR    32     200/  5/  7 1022.0F
MICHIGAN CITY     31     190/  9/ 11   N/A
BURNS HARBOR      31     180/  7/  9 1023.4F
SAINT JOSEPH      31     160/  5/ 10 1022.0
SOUTH LAKE BUOY   35 47  250/ 16/ 19 1022.6          2/ 3

$$
&&




USA.gov is the U.S. government's official web portal to all federal, state and local government web resources and services.